Theta_e
307 306 306 306 306 306 306 305 305 305 305 304 304 303 302 301 296 294 294 296 297 299 300 298 295 295 295 294 294 294 293 295 294 294 295 295 296 297 300 303 305 306 306 307 307 307 308 309 310 310 311 311 311 312 311 310 310 311 311 311 313 310 310 308 308 307 306 305 304 303 302 301 301 301
306 306 306 305 305 305 305 304 304 303 304 303 303 303 303 302 298 297 294 295 298 299 299 300 296 292 294 295 294 293 293 294 294 294 294 295 295 297 298 301 302 303 305 305 306 307 307 307 308 308 309 310 311 312 311 311 310 311 313 312 311 309 309 308 307 306 306 305 304 303 302 302 302 301
305 304 303 304 304 304 304 304 303 303 302 302 302 302 302 300 300 299 297 293 298 301 298 297 297 295 293 295 294 294 293 293 293 293 293 294 294 294 295 296 299 301 302 303 304 306 307 307 307 308 307 309 311 311 311 310 309 310 311 312 310 309 308 307 306 306 305 304 303 303 303 302 302 302
305 303 303 303 304 304 303 302 302 302 302 302 301 301 301 300 300 299 297 294 295 299 299 300 300 299 296 294 293 293 292 293 291 292 292 292 292 292 292 294 296 298 300 301 303 304 305 306 306 307 308 308 309 311 310 310 310 309 309 309 309 309 307 306 305 305 304 304 303 303 302 302 301 302
302 302 303 303 303 304 302 301 299 300 300 299 299 299 299 299 298 297 296 294 294 298 299 299 299 300 297 295 293 293 293 292 292 291 291 291 290 291 291 292 293 295 297 298 299 301 302 303 304 304 305 306 308 309 309 310 310 309 309 308 308 307 307 307 306 304 303 303 303 302 302 301 301 300
302 300 301 302 302 300 300 300 297 295 295 295 296 297 297 298 298 298 297 296 295 294 298 296 298 297 296 296 294 293 294 293 291 290 290 289 290 289 290 290 290 293 295 296 297 299 300 301 302 302 302 304 306 309 310 308 307 307 307 307 306 306 306 306 305 305 302 303 303 302 301 300 301 300
301 300 299 299 298 299 297 297 296 295 295 295 295 296 295 296 296 297 297 296 294 294 295 298 297 298 297 296 297 294 293 294 293 291 290 289 290 289 289 289 289 292 294 295 297 297 298 300 301 301 301 302 303 304 306 306 306 306 306 306 306 305 304 305 305 303 302 303 303 301 300 300 300 300
298 298 298 299 298 296 296 297 295 294 294 294 294 294 295 295 296 297 296 296 295 294 294 296 295 297 296 297 295 293 292 291 291 291 292 291 290 290 289 288 288 290 293 294 295 296 297 298 299 300 300 300 301 303 304 305 305 305 304 304 304 303 303 303 302 302 301 301 302 301 300 299 299 299
297 296 296 297 296 296 295 295 294 294 294 294 294 294 295 295 295 295 295 295 295 294 293 295 296 295 295 296 296 293 291 292 289 289 289 290 289 288 288 288 288 289 292 292 293 293 295 295 297 298 299 299 300 301 302 303 303 303 303 302 302 302 302 301 301 300 300 300 299 299 299 299 299 299
296 296 296 296 295 294 294 294 294 294 294 294 294 294 294 294 294 294 293 293 293 293 293 293 293 295 294 294 295 294 291 291 291 290 288 286 286 286 286 287 287 287 287 287 288 290 292 293 294 296 297 298 298 299 300 301 302 301 300 300 300 300 301 300 300 299 299 298 298 297 298 298 298 298
295 295 295 295 295 294 294 294 294 294 294 294 293 294 294 294 293 293 293 293 292 292 292 293 293 293 294 294 293 294 291 291 291 291 290 288 287 285 285 286 287 287 286 288 290 289 289 290 290 292 294 296 297 297 298 300 300 299 298 299 300 299 299 299 299 298 298 298 297 296 296 296 297 297
293 293 294 294 294 294 294 294 294 294 293 294 293 294 293 293 293 292 292 292 292 291 291 291 292 292 292 293 293 292 287 286 286 286 286 287 289 287 284 285 286 286 285 285 285 287 288 289 290 291 292 293 294 295 296 297 298 297 298 298 299 299 298 298 298 297 297 296 295 295 294 294 294 296
292 292 293 293 293 293 291 291 292 293 293 294 293 293 293 292 292 292 292 292 292 291 291 291 292 291 291 292 291 291 290 289 288 290 286 286 288 288 288 287 286 286 285 285 285 284 284 284 285 285 286 287 290 291 293 294 294 296 298 299 299 298 298 298 298 297 295 294 294 294 294 294 294 294
290 290 291 292 290 290 289 290 291 292 292 292 293 293 293 292 291 291 291 291 291 290 290 290 290 290 290 291 292 291 292 292 291 289 287 285 287 287 286 286 287 285 284 284 283 284 284 284 284 285 285 286 288 289 290 291 293 294 298 298 298 298 297 297 297 296 294 294 294 294 294 294 294 294
288 288 289 289 289 289 289 289 290 291 291 292 292 292 292 292 292 291 290 290 290 290 290 290 290 290 290 291 292 292 292 292 291 290 289 287 287 286 284 284 287 284 284 283 283 283 284 284 282 284 284 285 287 288 289 292 293 294 296 297 297 297 297 297 296 295 294 293 294 294 294 294 294 294
287 288 288 288 289 289 289 289 289 290 291 291 291 291 291 292 292 292 291 290 290 289 289 289 289 290 289 291 292 292 292 291 291 290 289 287 287 286 285 285 285 286 284 283 282 282 284 283 283 282 283 284 286 287 289 292 294 295 296 297 296 296 296 296 295 294 294 293 293 293 293 293 293 293
287 287 287 288 288 290 288 288 288 289 289 289 290 290 291 291 291 292 293 293 291 291 290 289 289 290 291 290 291 292 292 292 290 290 289 287 287 286 286 287 287 288 283 283 281 281 283 282 281 281 283 283 285 286 289 292 293 294 295 296 296 296 296 295 295 294 294 293 293 293 293 293 293 293
286 286 286 287 288 288 288 288 288 288 288 288 288 288 288 289 289 290 291 291 291 291 291 290 289 291 292 291 292 292 293 290 289 289 289 289 287 286 286 288 288 288 283 282 281 280 283 282 281 280 282 283 284 285 287 290 292 294 295 295 295 295 295 295 294 294 293 293 293 293 293 293 293 293
286 286 287 287 287 288 288 288 288 288 288 288 288 288 288 288 289 289 290 290 291 290 291 291 291 291 292 292 292 292 292 291 290 290 289 289 289 289 288 287 287 286 283 283 283 280 284 282 281 281 282 282 282 284 286 289 291 293 294 294 295 295 295 294 294 294 293 293 293 293 292 292 293 292
285 285 286 286 286 287 287 288 290 290 288 287 287 287 287 287 288 288 290 291 291 291 291 291 291 291 292 292 291 291 291 291 290 290 290 289 288 287 286 286 287 286 284 283 282 281 282 283 280 282 282 281 281 282 283 287 290 291 292 293 294 294 294 294 293 293 293 293 292 292 292 292 292 292
284 285 285 285 286 286 287 288 290 291 290 287 287 286 286 287 287 287 289 290 291 292 292 292 293 293 293 294 294 294 294 292 292 290 288 287 288 286 284 285 286 286 285 281 283 282 281 283 281 280 281 280 280 281 282 283 287 290 291 292 293 293 294 294 293 293 293 292 292 292 292 292 291 291
284 284 285 285 285 286 286 288 290 291 289 286 286 286 285 285 286 286 288 288 288 290 291 291 291 292 292 292 293 293 293 293 292 289 286 288 288 286 286 284 285 286 285 282 283 280 280 282 281 280 279 278 280 280 281 282 283 286 289 291 292 292 293 292 292 292 292 292 292 292 291 291 291 289
284 284 284 285 286 286 287 290 291 291 289 287 286 286 285 285 285 286 287 286 286 286 286 287 288 288 289 289 289 289 291 291 290 290 289 289 287 286 286 286 285 283 285 286 283 279 280 281 281 279 276 276 278 280 280 281 281 282 284 286 288 291 291 292 292 292 292 292 291 291 291 291 291 286
283 284 284 285 287 288 289 289 290 290 290 287 286 286 285 285 285 287 286 286 286 286 286 287 287 287 288 288 288 288 288 288 288 289 288 288 288 286 286 286 285 284 285 284 283 281 282 282 279 281 279 277 276 276 279 279 281 281 282 283 284 287 289 289 289 290 291 291 291 291 291 291 290 285
283 283 283 284 286 288 288 288 288 288 289 288 286 286 285 285 286 287 286 286 286 286 286 286 286 287 287 287 287 287 288 288 288 288 288 288 288 287 286 285 285 285 287 286 285 283 280 281 279 280 278 279 278 273 276 278 279 280 281 282 282 284 285 286 286 286 289 290 291 291 290 290 290 286
283 283 283 283 285 287 287 287 287 288 288 288 286 286 288 288 288 286 286 286 286 286 286 286 286 286 286 286 286 287 287 287 287 288 287 287 288 288 288 287 285 285 286 287 286 283 282 280 280 279 278 277 277 275 273 274 277 278 280 281 281 282 284 284 285 285 285 286 286 288 288 291 291 289
282 283 283 283 284 286 286 287 287 288 288 287 286 287 287 287 287 287 286 285 285 284 284 284 284 285 285 285 286 286 286 287 287 287 287 287 287 287 287 288 288 287 288 285 285 284 283 282 282 279 278 278 277 274 274 273 272 276 277 279 280 281 282 283 283 284 285 285 285 288 288 290 290 288
282 283 283 284 285 286 286 286 287 287 286 285 286 286 286 286 286 285 284 284 284 284 284 284 284 284 285 285 285 286 286 287 287 287 287 287 287 287 287 287 287 287 287 286 284 284 283 282 281 281 281 279 277 275 272 275 274 274 274 277 279 280 281 282 282 283 284 284 284 285 285 285 286 285
283 284 285 285 285 285 285 285 285 285 284 285 285 285 285 285 284 284 284 284 283 283 283 283 283 284 285 286 286 287 287 287 287 287 287 287 287 287 287 286 286 286 286 286 284 283 283 282 282 281 280 280 278 278 276 274 273 273 275 275 274 277 280 281 282 282 283 283 283 284 284 284 283 281
284 284 284 284 284 283 283 283 282 282 283 284 285 285 284 284 284 284 284 283 283 282 283 283 283 284 285 286 286 287 287 286 286 286 286 286 285 285 285 284 285 286 286 286 285 284 283 282 282 281 280 279 279 278 277 274 272 273 274 275 275 276 277 280 281 282 281 281 282 282 282 283 282 280
282 282 282 283 283 283 283 283 283 283 283 284 283 283 284 284 284 284 284 283 283 283 283 283 284 285 286 286 286 285 285 285 286 286 285 285 284 285 284 283 282 283 284 285 285 284 283 282 282 281 279 278 279 279 278 276 274 272 273 275 275 273 276 278 280 280 280 280 279 279 279 279 279 279
281 281 281 282 281 282 282 282 282 282 283 283 283 284 284 284 284 284 285 285 285 284 285 284 285 285 285 284 285 285 285 285 285 286 285 284 284 284 283 281 280 282 282 281 281 282 282 282 282 282 281 279 278 278 278 276 274 273 273 274 275 274 276 277 278 278 279 278 277 276 276 277 276 276
280 280 279 279 279 279 279 280 280 281 281 282 283 283 283 284 284 284 284 283 283 284 284 283 283 283 284 284 284 284 284 284 285 285 284 284 283 283 283 281 280 280 279 278 277 279 280 281 282 282 281 281 280 279 278 274 274 274 273 273 274 273 275 277 277 277 277 276 275 274 273 275 275 275
278 277 277 277 277 278 278 279 279 280 280 281 281 282 283 283 282 283 283 283 283 283 283 283 283 282 283 283 283 283 283 284 284 285 284 283 283 282 281 280 280 281 280 278 277 277 278 279 278 278 278 277 278 279 279 277 273 273 274 274 274 273 274 276 276 276 276 275 274 272 271 271 273 274
276 276 276 276 277 278 278 279 279 280 280 280 280 281 281 281 282 282 282 282 283 283 283 283 283 284 284 283 283 283 283 283 283 284 284 283 282 281 281 280 279 280 279 277 276 277 277 276 276 275 275 276 275 275 279 278 275 273 273 274 274 273 273 275 274 274 274 274 274 272 270 270 270 272
275 275 275 276 277 277 278 279 279 279 278 279 279 279 279 280 281 281 281 282 282 282 282 282 282 282 282 282 282 282 282 282 282 282 282 282 281 281 281 280 280 279 279 277 276 277 276 275 276 274 272 272 273 272 273 278 278 275 273 272 273 272 273 273 274 273 273 272 273 272 269 268 269 271
274 275 275 276 277 277 277 278 278 278 278 278 278 279 279 279 280 281 282 283 282 282 282 282 282 282 282 282 282 282 282 282 281 282 281 281 281 280 279 279 279 279 278 278 277 276 276 275 275 275 273 272 271 271 272 273 277 278 275 273 272 272 272 272 272 272 272 272 271 272 271 270 269 270
273 274 275 276 276 276 276 276 276 276 277 278 278 279 279 279 280 281 282 281 281 282 282 281 281 282 282 282 282 281 282 282 282 281 281 281 280 279 279 278 278 278 278 277 276 276 276 275 275 275 274 272 271 271 270 270 273 275 278 275 272 272 272 271 271 270 270 271 271 270 270 270 269 270
271 271 271 271 272 272 272 273 274 275 275 276 277 278 278 279 280 280 281 281 281 281 281 281 281 281 281 281 282 281 281 281 280 280 280 280 280 279 278 278 278 278 277 275 275 275 275 275 275 275 275 274 273 273 273 271 271 274 277 278 274 272 271 271 270 270 269 268 268 268 268 270 272 274
269 269 269 270 270 270 270 271 272 273 274 276 277 278 278 278 279 279 280 280 280 281 281 281 281 281 281 281 281 281 281 281 280 281 280 280 280 279 279 278 278 277 276 274 273 274 274 274 275 275 276 276 274 274 273 273 273 275 275 277 277 274 272 272 270 269 268 268 268 267 265 267 265 266
267 267 267 268 268 268 268 269 270 272 274 274 274 275 276 277 278 278 279 279 280 280 280 280 280 280 280 281 281 280 280 280 280 281 280 280 279 279 278 278 277 277 276 274 273 273 273 275 276 278 274 272 273 275 273 271 269 270 271 273 276 277 276 275 272 270 268 268 268 266 265 265 264 264
265 265 265 266 266 266 267 267 269 270 270 271 271 271 272 274 276 277 278 279 279 280 280 280 280 280 281 281 281 281 280 280 280 280 280 279 279 278 278 278 277 277 276 274 273 274 274 275 275 274 274 274 274 272 270 270 269 269 270 271 273 276 276 275 275 273 270 268 267 265 264 264 264 263
264 264 264 265 265 266 266 267 268 268 268 268 269 269 269 270 272 274 276 276 277 277 277 278 279 280 280 281 281 281 280 280 280 280 280 279 278 278 277 277 277 277 277 276 275 274 273 274 274 274 274 274 274 274 271 270 270 269 269 270 270 272 273 275 275 275 274 274 273 269 267 265 263 260
263 263 263 264 264 264 265 266 266 267 267 267 268 268 268 268 269 270 272 272 273 273 275 276 277 278 279 279 280 280 280 280 280 280 279 279 278 278 277 277 277 277 276 274 273 273 273 274 274 274 273 273 274 272 269 269 268 269 269 269 270 270 269 270 272 274 274 274 273 273 272 272 271 270
263 263 263 263 263 263 264 265 265 266 266 266 266 266 267 267 267 268 269 269 270 271 272 274 275 276 277 278 278 278 279 280 280 280 280 279 278 278 277 277 276 276 273 272 271 271 272 272 273 274 273 272 272 271 270 269 268 268 268 268 267 267 268 268 268 267 268 268 272 273 273 272 272 272
Wind_Speed
6 6 8 8 8 7 6 6 6 7 6 6 6 6 8 8 11 14 13 13 8 7 8 8 3 8 8 8 7 8 8 10 12 8 9 10 10 14 19 23 25 26 28 29 27 28 29 27 27 28 27 29 29 30 29 29 29 29 26 25 25 26 23 23 27 26 26 26 23 23 16 17 17 17
5 6 6 6 8 6 6 6 6 6 7 7 7 7 7 7 11 11 13 18 5 8 5 7 4 2 6 6 6 7 9 11 13 9 9 10 11 16 18 22 24 24 25 27 29 29 29 30 29 29 29 28 29 31 33 30 30 28 25 29 29 29 27 27 27 26 26 28 27 21 22 23 21 19
5 6 7 7 8 6 7 7 7 6 6 7 6 7 6 7 9 11 12 15 11 8 9 3 3 4 5 6 7 6 7 9 11 9 9 10 14 18 16 19 20 22 23 24 27 27 29 29 31 29 30 31 28 33 32 34 34 33 32 32 34 34 32 30 27 28 28 28 24 25 27 25 22 21
5 5 7 8 7 6 5 6 6 7 6 6 7 7 7 8 8 8 11 13 22 7 6 9 7 6 7 6 7 8 7 8 13 10 10 12 14 11 10 15 18 20 23 24 25 26 27 28 30 32 31 33 35 32 31 33 34 36 37 34 33 32 30 28 29 30 26 25 27 29 30 26 22 20
5 6 8 8 9 7 7 6 6 6 6 6 6 6 7 8 7 8 9 14 18 17 6 9 10 7 6 7 7 10 8 8 8 10 9 9 8 9 9 10 15 17 21 23 24 25 26 26 28 30 29 30 31 31 35 35 34 34 35 34 35 35 35 31 32 32 33 30 30 31 29 24 21 19
4 4 7 8 8 5 7 6 6 5 5 5 6 8 8 10 9 8 10 13 14 21 12 6 6 7 4 11 5 9 10 10 7 10 9 7 8 9 9 8 9 15 19 21 23 24 26 26 27 28 27 28 32 33 35 31 31 31 32 30 31 32 35 38 37 35 36 33 31 28 26 23 21 20
5 6 7 8 6 4 5 6 7 6 7 6 8 9 7 9 9 9 10 10 14 17 18 11 9 10 6 9 10 8 9 9 8 9 9 9 9 8 9 9 8 12 19 22 23 25 26 26 27 26 28 29 30 31 31 29 27 28 30 30 28 27 26 30 35 32 33 32 30 30 28 24 23 21
5 7 8 9 7 6 8 9 8 7 6 7 8 9 9 10 12 10 8 11 11 13 16 16 9 9 10 11 7 7 7 8 8 8 9 8 9 9 8 9 9 10 18 22 23 23 24 25 25 26 26 28 30 30 29 28 29 28 29 28 27 25 24 24 26 28 27 31 32 30 27 24 23 20
6 7 8 9 7 7 9 10 8 8 8 8 8 10 10 10 10 8 8 10 10 13 16 17 13 8 9 11 9 6 7 8 8 8 10 10 10 8 8 8 8 9 18 19 21 21 23 24 25 26 26 27 29 30 28 27 27 27 27 27 25 24 23 22 23 23 24 27 31 32 28 27 26 23
6 8 9 9 8 7 9 10 9 8 9 8 9 11 11 10 8 9 9 9 10 12 14 15 17 14 11 11 12 8 8 10 10 9 8 7 7 7 10 10 9 8 8 9 11 15 19 22 25 26 25 27 28 28 27 26 26 24 23 24 24 24 22 21 21 22 24 24 21 24 26 27 24 23
7 8 9 9 8 9 9 10 10 9 10 9 11 11 11 10 8 10 10 9 11 12 13 14 14 14 13 10 13 10 6 11 10 11 10 10 7 8 10 12 9 8 10 13 18 17 15 17 15 20 25 27 27 27 27 25 25 23 21 22 23 23 21 21 22 24 23 26 23 25 26 24 25 25
8 8 8 8 8 9 9 10 10 9 10 9 11 10 8 9 9 10 10 10 10 11 12 13 14 12 14 12 10 8 3 7 7 5 7 13 13 8 9 12 11 8 8 9 9 12 14 15 20 23 24 26 26 26 24 26 25 25 24 24 23 22 21 23 24 27 27 24 24 26 27 27 24 23
8 8 8 8 8 10 13 15 15 14 13 11 12 12 8 9 10 10 10 10 10 10 11 13 12 12 13 14 12 11 10 10 12 8 8 12 13 9 9 10 10 9 8 9 8 9 10 11 11 10 11 12 16 21 25 21 26 25 26 26 23 22 22 23 26 28 25 29 28 25 27 28 25 24
8 8 8 9 13 15 16 16 17 17 18 18 16 14 11 10 10 10 10 11 10 9 11 12 12 13 15 15 13 11 12 10 8 9 8 11 12 8 10 11 9 7 8 9 12 12 8 10 12 9 11 11 12 13 13 15 18 21 26 23 22 25 25 26 27 32 33 29 27 29 29 28 27 24
10 9 8 8 10 11 12 13 16 17 19 19 20 21 21 17 14 12 13 13 11 10 11 12 13 13 16 18 14 12 12 10 10 10 10 10 10 9 10 14 8 8 11 10 11 13 8 9 11 10 12 11 10 12 13 19 22 24 24 27 25 23 24 30 34 35 34 31 30 29 29 28 27 25
9 10 10 8 7 8 9 10 11 13 17 18 18 19 19 20 21 20 16 15 13 12 11 12 14 14 15 17 14 13 11 11 10 9 9 10 10 11 11 11 14 4 11 10 10 12 4 8 11 11 11 9 11 12 15 21 25 26 27 28 29 24 27 31 35 36 33 33 29 28 27 28 27 26
9 9 9 10 9 8 12 11 10 10 12 14 17 18 19 19 20 20 23 23 18 13 14 15 17 16 17 15 15 13 10 8 12 10 9 9 10 11 13 13 12 10 9 7 8 12 9 7 9 12 11 8 10 12 18 24 25 27 27 30 32 28 29 34 34 33 33 28 29 29 29 28 27 25
9 8 9 10 12 11 9 9 10 10 11 11 11 10 10 11 14 17 20 22 23 21 17 16 18 19 16 15 15 15 11 10 12 11 12 9 11 11 14 14 14 7 9 10 6 9 10 6 8 12 11 8 10 11 14 21 24 26 27 30 30 31 31 33 35 33 32 32 31 30 29 27 25 23
8 9 9 9 12 13 12 10 10 10 11 11 12 12 12 12 12 12 12 12 11 13 14 15 17 19 19 19 18 16 13 13 12 11 12 12 12 12 8 8 11 9 7 8 7 13 12 5 9 12 9 7 10 10 13 22 24 25 27 29 30 28 31 33 33 33 33 32 30 29 26 24 24 23
8 8 9 9 11 13 13 15 17 14 11 11 14 15 14 13 13 13 15 17 15 15 14 13 15 16 18 20 18 17 14 13 12 11 10 10 12 12 11 13 12 11 6 10 10 11 12 6 8 10 6 6 10 9 9 16 24 25 27 29 31 31 32 32 32 32 32 30 29 28 25 23 22 23
8 8 8 9 10 12 13 16 18 17 15 11 14 15 15 15 14 15 14 15 17 20 22 24 25 26 27 28 29 28 28 21 16 11 11 14 12 11 12 14 13 13 6 8 11 10 11 10 7 9 5 7 9 9 9 9 17 25 26 29 31 31 30 32 32 31 31 30 29 27 25 23 22 23
7 9 14 13 11 12 13 17 20 20 14 11 13 14 15 16 17 17 14 9 9 16 19 21 23 24 25 27 28 28 28 27 19 13 15 16 11 12 11 13 12 12 6 8 10 6 13 9 5 9 2 2 7 8 8 8 10 18 22 28 30 30 29 30 33 30 29 29 27 26 24 23 20 14
8 8 9 14 14 12 14 20 20 21 15 11 11 13 13 16 17 18 14 12 14 11 11 11 12 14 17 18 16 17 24 25 21 16 16 13 13 14 12 13 12 11 11 9 14 10 11 10 8 6 1 6 6 6 8 8 9 8 9 12 17 27 29 28 28 28 30 27 26 25 24 21 17 9
11 11 10 11 14 17 18 19 21 21 23 16 13 12 13 15 19 14 14 15 14 15 15 16 15 16 15 15 14 13 14 15 15 15 14 13 12 12 13 13 12 13 11 3 16 12 8 6 7 8 9 7 6 1 6 8 9 8 9 10 11 14 21 24 22 28 26 26 26 23 23 20 20 10
11 12 12 12 17 21 19 20 23 25 26 24 16 14 14 14 18 20 17 19 21 17 16 16 16 15 14 13 13 13 12 13 12 11 12 12 12 13 13 13 13 13 13 6 15 9 8 6 7 6 7 7 6 1 3 6 6 8 9 10 10 10 9 11 10 12 18 25 25 26 22 21 27 15
11 12 12 13 18 24 24 28 30 31 30 30 18 16 22 30 32 20 16 15 15 14 14 14 14 14 14 13 13 12 11 11 11 11 10 11 12 13 14 14 13 13 14 6 20 12 9 6 10 9 8 8 8 5 4 4 5 5 6 8 9 10 10 10 9 10 10 9 10 14 16 26 27 24
13 13 14 16 22 26 31 33 31 31 34 27 18 28 32 32 32 24 15 14 15 14 14 14 14 15 14 14 13 12 12 10 10 10 10 11 12 13 13 14 14 15 15 4 12 11 10 10 8 11 11 9 9 3 6 6 4 4 6 8 9 9 9 9 10 8 8 9 8 16 19 24 24 23
12 14 14 17 30 33 33 33 32 32 32 24 32 32 33 33 27 18 16 14 14 13 13 14 14 14 13 12 12 12 11 11 10 11 11 12 12 13 12 14 15 15 13 10 9 11 11 11 8 11 12 10 10 10 8 5 2 6 9 7 7 8 9 9 9 8 7 8 8 8 7 9 10 13
12 19 30 32 31 32 32 33 32 28 29 32 32 34 33 27 16 14 13 14 13 13 14 13 13 12 13 12 13 12 12 13 13 12 11 11 11 12 12 13 12 12 11 10 9 10 11 12 11 8 9 9 10 8 7 6 7 6 8 8 7 8 9 9 9 9 8 8 9 10 10 10 9 11
27 28 28 32 31 28 24 20 17 17 19 31 33 29 24 14 13 12 12 12 13 13 13 12 13 12 11 11 11 13 12 11 12 12 12 12 10 9 9 10 11 11 11 10 10 10 11 11 10 8 9 9 10 9 8 6 5 6 7 9 5 1 4 7 8 8 9 9 10 9 7 7 9 12
15 20 20 19 26 24 31 32 26 24 22 18 15 15 14 13 12 12 12 13 13 14 13 12 12 12 11 11 12 11 11 13 13 11 11 10 10 9 9 10 12 10 10 9 9 10 10 10 10 9 10 9 8 9 6 7 7 7 7 7 7 9 7 8 9 8 8 8 7 7 7 7 8 9
15 16 18 20 15 13 13 13 12 12 11 13 12 12 12 13 14 16 19 18 14 13 13 14 14 12 11 12 13 13 14 13 12 10 10 10 11 9 9 9 11 10 9 5 6 7 9 10 10 9 10 9 10 8 6 7 8 8 8 8 8 1 2 8 8 8 9 9 9 8 7 8 8 7
14 11 12 10 12 10 13 12 13 11 13 12 12 14 12 12 13 13 12 14 14 13 12 13 13 14 13 13 13 13 14 13 11 9 10 10 10 10 9 11 11 9 8 6 7 6 6 8 9 9 9 9 9 9 9 7 6 7 9 9 8 5 5 6 7 9 10 10 9 8 7 6 6 7
14 10 10 11 12 11 12 12 12 14 13 12 13 13 15 16 16 15 15 14 14 14 15 14 14 14 14 14 13 13 13 11 9 9 10 11 9 10 9 9 10 9 8 6 6 7 6 5 4 2 1 1 1 5 8 9 8 8 8 9 9 8 6 6 5 8 10 10 11 10 7 6 4 5
12 12 12 11 11 11 12 12 13 12 13 13 14 12 13 14 12 14 12 12 12 13 14 14 14 15 14 14 13 12 11 12 11 11 9 9 9 9 9 10 9 8 8 6 6 6 6 5 5 4 3 3 2 2 3 1 8 7 6 6 7 7 7 6 6 7 8 7 9 10 7 6 5 4
10 10 11 11 11 13 11 12 13 14 12 13 13 13 12 15 13 14 13 13 13 13 13 13 13 13 13 12 12 11 12 13 12 11 10 8 8 9 9 9 9 9 7 6 6 6 7 7 7 8 8 6 6 6 4 2 5 10 10 8 7 7 7 7 6 6 8 8 7 9 10 9 7 6
9 9 10 11 11 12 12 13 13 13 13 13 15 13 12 12 12 11 14 15 13 13 13 14 13 13 13 13 12 13 12 12 12 11 11 9 8 8 9 8 8 8 7 6 6 7 7 8 8 8 8 8 8 9 5 3 5 11 10 10 8 7 9 8 8 7 5 7 7 7 7 8 7 6
12 11 11 11 12 13 13 14 14 14 13 13 13 13 13 14 13 15 14 13 13 13 13 13 12 13 13 13 13 12 12 11 11 11 10 8 8 8 8 8 8 7 7 5 7 7 8 8 9 9 9 10 9 8 6 1 3 6 10 11 11 9 8 9 9 9 7 5 6 4 5 6 6 5
11 12 13 13 14 14 14 14 14 13 14 14 13 14 13 13 13 13 13 13 14 14 13 13 12 11 12 12 12 13 13 12 11 11 10 8 8 8 8 8 8 6 5 5 6 6 6 7 8 9 9 9 10 10 10 10 8 6 10 13 11 11 9 10 9 8 9 8 7 7 7 6 8 10
11 11 11 12 13 14 14 14 13 13 14 14 14 12 14 14 13 13 12 13 13 13 13 13 13 13 12 11 11 11 12 13 12 11 11 9 8 8 8 7 7 6 5 5 6 7 7 8 9 11 11 6 1 5 7 7 6 5 6 9 18 14 11 9 10 10 8 7 8 9 7 6 5 3
11 10 11 11 11 12 13 14 14 13 13 15 15 16 15 14 14 12 13 15 14 13 12 12 12 12 11 11 10 10 11 11 10 10 8 7 7 7 8 8 6 5 5 6 7 7 10 11 4 7 9 8 8 9 9 7 6 6 6 6 10 11 13 11 11 10 8 9 8 8 7 6 6 5
10 10 10 10 11 12 11 12 12 13 13 13 13 15 15 16 14 21 17 16 15 14 13 12 12 12 11 10 10 10 10 10 10 9 7 7 7 7 7 6 5 5 5 6 9 9 2 7 9 9 7 8 8 8 8 9 9 7 6 6 6 10 12 12 11 12 13 11 10 8 5 5 4 4
10 10 10 11 11 11 11 12 12 12 13 13 13 13 14 14 14 15 14 15 14 13 13 13 12 12 11 11 10 9 9 9 9 9 8 7 6 6 5 5 6 6 6 3 3 5 6 6 7 8 7 6 5 6 8 8 8 9 8 8 7 6 8 13 14 16 15 17 12 8 8 7 7 5
9 9 9 9 9 10 11 11 12 11 12 12 12 12 12 13 13 14 13 13 13 13 13 13 13 12 12 12 11 9 9 8 8 9 8 7 6 6 5 5 4 2 2 4 5 5 6 6 6 7 8 6 4 6 9 9 8 7 9 8 7 9 8 7 8 11 12 12 11 11 12 10 7 7
10 10 9 9 10 11 10 11 11 12 11 11 11 12 12 12 12 13 13 13 13 14 14 13 13 12 12 11 11 10 10 10 9 8 7 6 4 3 2 1 2 3 3 4 7 5 5 5 5 4 4 4 4 6 8 9 9 9 8 10 10 9 8 8 9 9 7 6 9 12 12 11 13 15
Wind_Direction
245 246 246 246 254 252 252 252 252 251 249 249 252 245 253 263 277 292 289 272 256 257 194 265 243 210 220 227 222 230 228 237 239 236 233 236 239 242 241 243 246 248 248 249 250 248 247 246 248 248 245 243 242 241 242 245 242 235 239 242 239 225 224 226 227 225 222 221 211 212 194 204 210 219
248 253 257 252 258 258 255 251 248 242 242 245 244 247 245 236 252 270 283 287 211 264 192 221 257 227 232 230 233 222 234 235 236 237 236 238 238 238 236 241 245 248 251 252 252 252 252 249 246 246 247 245 242 241 240 238 238 235 223 226 230 228 224 224 224 221 220 219 213 199 196 205 211 217
253 256 255 252 255 251 251 250 248 243 238 244 246 248 247 245 244 260 272 284 284 154 261 233 233 225 227 223 231 230 234 237 235 238 238 239 239 239 243 245 248 249 251 253 253 253 254 254 253 250 247 247 246 243 240 239 240 239 234 227 227 231 228 224 221 221 218 217 210 205 206 206 210 221
238 252 260 259 259 257 254 253 252 249 240 240 243 242 243 248 239 252 262 262 276 253 276 280 267 253 250 228 226 240 235 231 227 233 231 237 241 245 245 246 244 245 248 251 252 252 253 254 256 255 253 249 247 249 246 244 241 240 241 238 231 227 228 224 224 225 221 213 208 209 207 205 209 221
243 244 251 253 251 247 247 244 248 247 251 248 250 246 249 251 238 235 251 263 275 284 230 262 271 260 238 258 204 241 236 236 234 234 238 238 237 239 240 241 241 242 246 248 249 250 252 253 254 254 255 256 253 250 249 246 242 239 239 238 237 230 224 215 219 221 218 212 208 211 210 201 200 211
266 260 260 263 264 255 251 254 253 246 252 247 251 246 238 244 241 221 243 257 269 279 283 238 274 266 223 266 208 231 250 247 236 240 237 234 229 236 238 242 242 236 242 247 249 250 252 252 252 253 255 257 258 257 253 249 247 243 241 236 230 227 229 228 223 216 213 214 213 211 207 205 205 210
286 287 283 280 280 282 277 265 263 256 253 248 247 251 240 248 247 237 233 251 263 272 279 278 271 275 258 246 263 238 240 249 235 240 238 233 236 231 235 237 242 234 240 244 245 247 248 249 252 252 254 255 256 256 255 254 250 245 239 231 227 223 221 220 218 216 216 216 213 211 211 206 210 212
283 273 276 273 280 283 281 277 272 259 248 245 247 250 247 246 251 243 239 237 253 271 282 281 265 270 279 267 253 247 248 240 241 235 247 238 240 239 230 233 242 236 239 243 245 247 250 252 252 253 254 254 256 257 254 250 249 243 236 225 220 218 216 218 222 222 211 213 213 211 210 210 216 216
290 288 279 285 285 281 275 275 269 270 260 255 253 253 253 250 253 249 239 243 244 257 267 277 278 262 261 271 270 238 248 256 247 245 245 242 242 243 240 240 238 240 245 246 248 249 251 251 252 252 251 252 254 256 257 253 246 239 228 221 217 211 210 214 221 216 212 210 213 211 212 217 219 219
280 277 279 280 282 278 272 275 276 272 267 265 257 258 260 257 257 255 249 244 248 251 260 269 281 280 268 273 271 242 228 256 264 259 245 250 241 237 251 241 240 238 235 240 245 248 251 251 252 253 252 252 252 253 254 252 243 234 225 219 214 212 211 212 211 207 204 208 203 214 220 219 222 223
274 272 273 275 273 274 272 275 276 278 275 267 266 262 265 266 260 261 258 250 250 251 259 266 266 277 276 268 274 272 211 243 246 259 274 264 232 223 238 254 242 230 244 246 246 247 242 248 250 251 251 252 252 252 253 253 247 234 225 221 216 211 210 209 214 213 210 211 207 212 220 222 226 227
273 271 270 270 269 266 267 268 273 272 274 275 272 269 266 270 266 264 265 260 255 256 259 262 271 267 276 278 261 272 260 266 264 235 242 262 267 235 231 235 246 235 224 243 244 246 251 251 249 250 251 251 251 252 252 251 248 235 221 217 217 214 207 209 213 215 211 207 207 213 216 221 223 229
281 278 273 271 268 262 261 260 260 263 263 271 277 273 264 266 268 267 265 264 260 261 262 268 267 273 273 270 274 271 260 248 258 251 206 248 259 264 264 251 226 229 226 240 244 243 226 242 245 239 246 246 245 248 245 247 248 239 226 220 214 207 203 207 212 210 202 204 205 212 217 217 220 223
282 278 276 273 267 268 268 266 265 263 261 256 254 266 272 267 267 268 269 266 263 262 263 264 272 273 270 272 268 268 263 265 254 252 233 245 258 259 258 268 244 195 213 232 245 244 222 227 245 237 243 242 231 241 237 236 237 236 230 220 208 205 202 205 211 210 206 206 208 214 217 218 220 221
292 288 280 278 278 274 272 271 267 265 264 261 258 257 257 255 256 267 267 266 263 259 260 268 267 264 270 271 272 266 270 265 257 250 243 244 255 251 260 271 273 175 194 218 243 253 217 205 239 240 239 240 233 237 238 237 236 236 231 225 214 208 207 210 210 210 208 206 208 211 214 218 222 222
286 289 290 285 279 273 270 270 273 270 265 262 261 259 258 256 252 247 249 262 268 261 264 264 263 267 263 270 273 271 270 270 264 251 244 241 242 248 248 253 263 227 181 211 231 256 204 193 228 241 241 233 236 237 240 239 238 236 233 229 221 209 215 211 210 208 207 208 212 216 219 223 228 228
284 288 291 293 286 277 274 273 269 270 276 274 268 264 263 259 254 251 249 247 249 260 260 262 266 261 267 271 270 268 270 267 269 262 252 242 241 242 248 253 262 252 185 199 231 253 241 185 221 241 241 226 235 240 240 240 239 237 235 232 226 213 213 212 208 207 207 207 213 218 221 223 223 220
284 284 286 290 290 288 279 269 272 275 275 278 280 275 266 262 258 253 248 248 248 246 249 253 259 264 266 265 269 275 276 273 268 269 264 255 251 244 245 250 254 257 146 200 217 259 253 184 215 242 242 217 233 236 235 237 237 236 236 234 227 221 215 212 211 211 208 209 214 216 214 210 212 217
278 281 279 276 279 284 285 277 269 274 279 283 280 276 275 269 266 262 259 249 243 244 244 248 254 262 266 268 270 272 270 264 263 262 266 266 265 266 271 270 257 253 188 196 189 249 258 161 215 240 238 219 233 232 233 234 234 234 235 234 228 222 217 214 213 210 210 211 207 202 200 207 214 216
275 273 273 275 277 278 280 279 278 274 275 279 280 280 277 276 270 265 256 252 246 247 248 245 249 254 259 264 266 265 266 266 265 264 263 264 263 265 264 263 264 255 202 187 202 242 257 206 212 249 227 212 235 231 228 231 233 233 233 234 231 227 220 216 213 213 209 201 196 196 199 206 211 212
276 272 266 267 271 278 280 282 285 285 284 277 278 278 279 278 279 274 272 260 253 251 250 252 253 255 258 261 263 265 264 263 263 268 263 258 254 254 255 258 262 261 210 198 206 227 255 241 210 245 231 211 233 232 227 227 230 232 232 234 233 231 225 219 214 207 199 195 195 198 201 205 211 209
276 272 273 269 272 278 283 288 291 291 289 281 278 279 280 283 282 280 279 286 266 253 254 254 256 257 259 260 263 265 264 263 260 254 253 258 262 256 249 257 256 266 228 214 184 201 235 246 191 234 235 233 237 232 230 224 227 230 233 234 234 231 226 216 208 202 199 196 197 200 202 211 209 199
293 286 282 281 280 279 282 288 293 297 298 288 283 283 282 281 280 280 293 295 290 287 280 268 263 263 260 263 262 262 262 261 257 248 251 257 250 252 254 254 261 265 255 221 165 207 240 232 223 183 165 248 239 206 225 221 220 218 217 231 236 233 223 213 206 201 201 199 202 205 209 212 199 175
305 304 302 294 291 296 296 297 300 301 300 296 290 287 282 281 282 291 296 291 288 288 284 282 277 272 270 267 263 260 260 258 252 250 244 245 246 250 255 252 249 250 256 185 168 204 235 211 222 192 203 231 260 190 199 219 217 214 210 220 227 231 229 220 213 209 205 208 210 211 212 208 191 179
305 307 305 305 304 307 302 301 301 301 300 298 293 286 281 280 286 293 291 291 291 289 286 281 279 277 273 268 264 262 260 258 256 250 242 239 236 240 251 252 250 255 253 232 175 200 222 194 218 186 219 219 234 143 238 213 221 211 211 213 221 219 216 218 205 208 212 211 211 213 215 205 191 178
306 303 305 305 306 308 307 306 305 303 301 299 296 286 287 291 292 289 285 284 284 281 282 280 278 276 273 272 270 267 264 259 257 254 246 238 236 235 240 245 248 257 254 204 175 200 208 217 208 196 208 206 238 178 215 219 218 222 212 217 220 217 214 218 210 207 198 207 217 219 208 201 191 180
308 307 304 302 303 304 306 307 307 306 303 302 295 297 298 296 295 294 286 282 279 277 276 275 273 274 273 273 274 272 272 268 260 258 248 242 238 238 240 239 240 246 255 212 191 201 206 227 192 197 209 202 218 182 214 206 225 189 218 214 216 214 213 214 215 206 190 191 190 201 204 197 191 181
299 298 299 302 306 308 308 307 306 305 303 300 300 300 299 297 295 288 284 279 275 272 270 270 273 274 274 274 275 275 275 272 269 263 258 252 245 241 241 240 240 242 247 236 207 208 210 223 217 209 204 195 205 205 217 203 169 181 202 207 211 213 209 211 212 204 195 187 183 188 183 184 183 170
297 301 304 305 307 307 306 305 304 302 299 299 301 300 298 296 291 288 283 280 275 272 271 270 270 270 271 273 275 277 276 274 271 268 267 258 249 243 242 244 242 241 239 233 216 212 211 217 222 205 202 209 211 215 193 205 174 197 193 183 209 207 203 204 204 205 196 185 183 181 183 175 159 152
306 306 306 306 304 303 303 304 301 300 299 300 298 296 296 295 291 287 286 280 277 271 270 267 266 268 271 271 275 273 273 274 272 273 268 264 254 242 244 246 245 241 236 230 220 217 215 217 219 202 204 210 211 212 198 167 180 188 187 196 195 51 225 197 195 194 185 184 178 172 159 148 147 149
308 306 305 305 307 304 302 299 294 288 290 291 292 294 292 289 287 289 286 281 276 275 273 275 273 273 274 279 279 278 278 274 270 264 264 261 258 250 244 242 247 249 236 225 218 213 214 213 213 201 206 210 209 214 194 179 180 168 188 186 173 190 186 177 178 175 167 154 132 122 120 123 131 138
309 308 308 306 301 296 292 290 288 290 285 283 283 285 287 285 280 274 274 271 269 268 268 269 273 274 276 277 276 275 270 269 268 263 259 256 258 251 249 242 244 247 249 215 219 216 212 210 208 208 206 198 202 204 185 183 185 176 180 182 188 172 145 173 160 152 147 135 129 132 137 138 135 133
307 300 300 300 304 298 299 296 293 290 292 287 283 280 282 285 288 289 291 291 288 287 284 279 278 279 277 275 271 271 271 269 267 262 262 254 255 255 244 242 245 245 244 221 206 211 207 214 212 210 207 206 206 192 184 181 185 174 175 176 180 180 185 180 158 148 140 135 136 131 126 131 134 139
307 303 300 300 302 301 299 297 298 300 301 302 304 307 305 305 306 304 304 301 299 296 291 287 285 281 280 278 277 277 276 275 271 265 261 262 251 250 244 244 242 239 239 224 200 201 197 191 160 162 181 181 230 205 197 187 173 179 177 172 175 175 182 164 153 149 152 150 141 135 129 117 111 119
312 308 307 306 302 301 302 301 304 309 313 314 313 312 313 308 303 307 304 304 303 301 299 296 292 289 287 284 281 279 280 282 281 279 265 255 248 245 245 244 246 239 230 210 190 189 178 160 149 146 130 145 143 350 16 154 160 163 157 170 169 161 164 167 148 145 134 131 139 139 127 121 124 125
313 312 306 306 307 308 305 309 309 309 308 312 312 311 308 310 309 307 304 304 303 298 295 294 293 290 288 283 283 284 286 284 281 275 270 255 249 246 244 242 244 241 224 206 192 180 174 176 172 172 175 180 189 198 188 50 166 157 162 166 162 151 154 151 147 137 135 137 147 143 153 160 156 148
310 304 305 302 304 310 313 315 316 316 316 313 310 307 304 302 304 301 301 301 298 296 294 293 292 292 290 287 285 284 285 283 278 274 269 262 250 248 246 246 240 239 228 206 183 176 172 181 187 185 187 192 197 203 180 17 180 172 156 154 151 153 153 150 144 147 139 140 141 153 154 150 154 152
320 319 317 322 324 324 323 321 318 316 315 312 308 308 307 306 307 307 305 303 301 301 300 298 295 293 292 290 290 286 285 280 276 273 269 262 257 246 241 242 241 229 229 188 177 183 179 183 188 196 190 196 200 192 165 344 111 179 180 153 153 155 154 147 153 152 139 116 123 102 94 123 139 136
341 338 333 330 328 327 323 320 319 318 318 314 312 310 309 309 311 311 311 308 307 307 306 302 297 293 293 292 288 289 288 286 282 276 270 263 252 250 244 241 241 234 209 174 177 182 181 189 193 197 198 199 202 196 181 174 183 145 171 165 140 145 161 161 151 142 138 127 98 85 63 80 101 124
337 337 331 330 325 324 323 321 319 317 313 315 318 316 316 315 313 312 311 314 313 310 308 306 303 301 297 295 294 292 288 285 282 276 274 268 255 245 243 239 236 225 197 176 170 186 189 199 194 199 203 200 60 66 84 76 71 88 114 150 155 153 159 154 150 143 129 127 121 112 108 109 90 23
334 334 334 330 323 323 323 320 317 317 324 326 322 322 322 318 316 315 319 318 316 314 312 309 305 302 300 298 298 297 296 293 288 280 274 270 259 248 242 239 238 212 196 185 185 186 203 209 188 94 84 100 119 103 96 101 110 102 110 126 157 150 150 149 144 143 134 137 128 123 124 135 130 119
330 328 325 326 323 322 319 314 320 326 325 325 327 328 324 324 321 324 322 323 323 322 319 318 315 312 308 306 304 302 300 299 297 288 279 268 262 254 246 236 228 212 201 193 193 205 125 97 115 122 130 127 132 139 150 148 139 129 120 109 110 136 127 120 126 128 136 138 132 123 104 77 89 108
327 323 321 323 322 319 320 321 323 325 324 323 323 324 325 327 329 333 335 333 332 330 329 327 325 323 321 316 312 310 308 306 303 297 288 274 260 252 247 226 222 215 216 200 124 119 129 126 120 134 146 154 159 150 151 150 138 132 126 121 116 108 109 113 118 128 137 144 142 144 149 147 142 173
324 321 318 318 319 319 319 320 320 322 323 323 324 326 328 329 328 331 332 332 330 330 328 325 325 326 327 324 318 313 307 305 300 297 287 273 250 239 235 235 225 201 113 114 121 122 122 138 148 142 152 164 145 126 128 128 130 133 128 125 125 117 111 105 111 121 126 126 120 119 118 108 106 124
324 323 320 321 321 321 318 319 321 322 323 324 327 329 330 329 329 328 330 331 330 326 325 325 325 326 325 324 324 322 319 310 303 293 290 282 270 261 254 161 132 135 124 116 116 115 119 124 125 120 95 79 66 115 127 134 132 129 128 133 123 115 111 119 120 114 108 100 123 132 128 124 112 112